Retour au catalogue

STARLINK-31947

ActifCommunicationsVLEO
NORAD 59835·PAYLOAD·🇺🇸 United States

Lancé May 23, 2024 depuis Cape Canaveral Space Force Station

Loading…

Prochains Passages (prochaines 24 heures)

TLE

FraisSource: CelesTrak SupGP

Époque: Sep 15, 2026, 03:35 UTC

1 59835C 24097A   26258.14979167 -.00006419  00000+0 -23241-3 0  2583
2 59835  43.0017 284.1795 0001726 273.1705 128.7442 15.27594258    11

Suivez STARLINK-31947 en temps réel avec AllMySat

Download on the App Store